STARLINK-34293 (64275 NORAD) Tracking and Keplerian Element Data

This shows tracking and keplerian element data for the satellite.

Feedback or suggestion? Click here.




ElementValue
Catalog64275
NameSTARLINK-34293
Epoch Orbit3166
Epoch Day354.08170609
Epoch Year2025
RAAN126.7583
Inclination53.1595
Eccentricity0.0001518
Argument of Perigee88.4487
Mean Anonmoly271.6688
Mean Motion15.30210638
Decay Rate0.00015005
L11 64275U 25120V 25354.08170609 .00015005 00000+0 51754-3 0 9999
L22 64275 53.1595 126.7583 0001518 88.4487 271.6688 15.30210638 31663



Live tracking and technical data element details for STARLINK-34293 (NORAD 64275). STARLINK-34293 can be tracked NOW for your location showing map with azimuth and elevation plus other details from your city location.







IsCatalogInMostPopularTable: catalog: 64275, numindb: 8
Update: records affected: 1



GetName: 64275 STARLINK-34293

Hit Count: updated at: Sat, 11 Apr 2026 21:35:37 GMT